Location: Unspecified
(35.6961°N, 0.0000°E)
Time: 21:31:05
(UTC+00:00)

Vanguard 3 - Pass Details

Date: 31 May 2019
Orbit: 508 x 3263 km, 33.3° (Epoch: 19 June)

Event Time Altitude Azimuth Distance (km) Brightness Sun altitude
Rises 21:36:46 0° 273° (W) 3,203 10.8 -23.4°
Reaches altitude 10° 21:38:44 10° 270° (W) 2,478 10.1 -23.6°
Maximum altitude 21:44:34 67° 189° (S) 1,292 7.9 -24.3°
Enters shadow 21:48:10 38° 121° (ESE) 2,064 8.7 -24.7°
Drops below altitude 10° 21:55:07 10° 110° (ESE) 4,335 - -25.4°
Sets 21:59:39 0° 108° (ESE) 5,795 - -25.9°
